Location: *
(52.2090°N, 4.1550°W)
Time: 23:01:17
(UTC+00:00)

Lacrosse 5 rocket - Pass Details

Date: 19 July 2019
Orbit: 464 x 634 km, 57.0° (Epoch: 23 August)

Event Time Altitude Azimuth Distance (km) Brightness Sun altitude
Rises 23:35:28 0° 298° (WNW) 2,934 5.6 -16.3°
Reaches altitude 10° 23:37:49 10° 295° (WNW) 2,018 4.7 -16.4°
Maximum altitude 23:42:23 60° 217° (SW) 712 1.6 -16.5°
Enters shadow 23:44:30 29° 147° (SSE) 1,127 2.4 -16.6°
